FENGYUN 1C DEB, 37057

Orbit data source: Space-Track

FENGYUN 1C DEB, 37057 is space debris in SSO originally from a launch on Mon, 10 May 1999 UTC launched from the Taiyaun Space Center, China (TSC). Fengyun 1C debris stems from the Chinese weather satellite Fengyun-1C, which was intentionally destroyed by a Chinese anti-satellite missile in 2007. This event dramatically increased the amount of space debris, with thousands of trackable fragments posing hazards to satellites and human spaceflight. The Fengyun 1C debris cloud has become a focal point in discussions about space sustainability and the need for international regulations to prevent the creation of new debris.

Loading next visibility...
Identifier
37057, 1999-025EER
Orbit
SSO
Country
Flag of CNCN / PRC
Related business
Manufacturer
Unknown
Mission
Spacecraft
Bus & Motor
Unknown
Mass
Unknown
Launch date (UTC)
1999-05-10 (27 years ago)
Launch vehicle
Unknown
Launch site
Taiyaun Space Center, China (TSC)
Object type
Payload
Rocket body
Debris
Shape & HBR
Unknown shape, 0.1 m
Radar Cross Section
Small (<0.1 m²)

Expand to show TLE details & history
Last TLE update: 2 days ago

TLE from 2 days ago
0 FENGYUN 1C DEB
1 37057U 99025EER 26105.31072821  .00000270  00000-0  16087-3 0  9999
2 37057  98.9161 121.4814 0284607 158.7080 202.6210 13.96304969653226
Epoch: 2026-04-15T07:27Z
TLE epoch observation values (Epoch: 2026-04-15T07:27:26.917Z)
Latitude
0.00001°
Longitude
166.14479°
Altitude
1,101.755 km
Speed
7.205 km/s
True Right ascension
08h 05m 55s
True Declination
0° 00' 00"
Sunlit
Object was in daylight at epoch
Visualization orbit readout
Latitude
Unknown
Longitude
Unknown
Altitude
Unknown
Speed
Unknown
Apparent Right ascension
Unknown
Apparent Declination
Unknown
Sunlit
N/A
Visualization observer readout
Local Sidereal Time
19:23:28
Azimuth
Unknown
Elevation
Unknown
Doppler factor
Unknown
Orbital elements
Apogee altitude
1,111.065 km
Perigee altitude
696.566 km
Semi-major axis
7,281.952 km
Eccentricity
0.02846
Inclination
98.9161°
RAAN
121.4814°
Arg. of periapsis
158.708°
True anomaly
201.4066°
Mean anomaly
202.621°
Eccentric anomaly
202.00988°
Mean motion
3.49278 °/min
Orbital period
103.07 mins
BSTAR
0.00016087
Loading maneuver chart data...
Computing Atmospheric mass density...

Documentation

Showing up to 5 results
|